Regional Weather Roundup
Issued by NWS Cleveland, OH

Home | Current Version | Previous Version | Graphics & Text | Print | Product List | Glossary On
Versions: 1 2 3 4 5 6 7 8 9 10 11 12 13 14 15 16 17 18 19 20 21 22 23 24 25 26 27 28 29 30 31 32 33 34 35 36 37 38 39 40 41 42 43 44 45 46 47 48 49 50
000
ASUS41 KCLE 252300
RWRCLE
OHIO REGIONAL WEATHER ROUNDUP
NATIONAL WEATHER SERVICE WILMINGTON, OH
700 PM EDT WED MAY 25 2016

NOTE: "FAIR" INDICATES FEW OR NO CLOUDS BELOW 12,000 FEET WITH NO
SIGNIFICANT WEATHER AND/OR OBSTRUCTIONS TO VISIBILITY.

OHZ001>008-015>018-024>027-034-035-043-044-260000-
   NORTHWEST OHIO

CITY           SKY/WX    TMP DP  RH WIND       PRES   REMARKS
DEFIANCE       FAIR      85  59  41 SE7       29.96F
FINDLAY        FAIR      82  57  42 S14       29.99F
TOLEDO EXPRESS PTSUNNY   80  57  45 SE7       29.99F
TOLEDO EXEC    FAIR      80  58  46 SE10      30.01F
LIMA           FAIR      81  59  47 S13       30.00F
$$

OHZ009>014-019>023-028>033-038-089-260000-
   NORTHEAST OHIO

CITY           SKY/WX    TMP DP  RH WIND       PRES   REMARKS
CLE-HOPKINS    CLOUDY    81  55  40 SW10      30.08F
CLE-LAKEFRONT  PTSUNNY   81  56  42 SW10      30.04F
CUY CO. ARPT   PTSUNNY   82  59  44 SW6       30.07F
LORAIN-ELYRIA  CLOUDY    78  57  48 S8        30.06F
ASHTABULA      FAIR      82  51  34 CALM      30.07F
AKRON-CANTON   PTSUNNY   77  55  46 SW14      30.11S
WOOSTER        NOT AVBL
MANSFIELD      PTSUNNY   78  57  48 S13       30.08F
YOUNGSTOWN     PTSUNNY   79  53  40 SW10      30.10S
$$

OHZ042-051>053-060>062-070>072-077>081-260000-
  SOUTHWEST OHIO

CITY           SKY/WX    TMP DP  RH WIND       PRES   REMARKS
CINC-COVINGTON FAIR      79  62  56 S13       30.04F
CINC-LUNKEN    FAIR      80  65  59 S9        30.03F
HAMILTON       FAIR      83  62  49 S7        30.03F
DAYTON         NOT AVBL
WRIGHT-PAT AFB NOT AVBL
DAYTON GENERAL FAIR      79  61  53 S13       30.03F
WILMINGTON     FAIR      79  61  53 S13       30.05F
$$

OHZ036-037-039>041-045>050-054>059-063>069-073>076-082>088-260000-
  CENTRAL AND SOUTHEAST OHIO

CITY           SKY/WX    TMP DP  RH WIND       PRES   REMARKS
COLUMBUS       PTSUNNY   78  57  48 SE10      30.07F
OSU AIRPORT    FAIR      78  58  49 S15       30.06F
BOLTON FIELD   SUNNY     79  61  53 S12       30.08F
RICKENBACK AFB NOT AVBL
NEWARK         CLOUDY    80  58  46 S10       30.08F
MARION         FAIR      79  58  48 S13       30.05F
LANCASTER      PTSUNNY   76  60  57 S9        30.09F
ZANESVILLE     CLOUDY    77  62  59 S6        30.11F
NEW PHILLY     PTSUNNY   80  55  42 S5        30.11F
$$




USA.gov is the U.S. government's official web portal to all federal, state and local government web resources and services.